This is the latest recevied weather packets stored in our database for station/object KC1TEM-13. If no packets are shown the sender has not sent any weather packets the latest 10 day(s).
| Time | Temp. | Humidity | Pressure | Rain* | Wind** | Luminosity | Snow |
|---|---|---|---|---|---|---|---|
| 1788459723 | 21.11° C | 85% | 1013.8 hPa | 0 mm | - | 278 W/m² | - |
| 1788459421 | 21.11° C | 87% | 1014 hPa | 0 mm | - | 231 W/m² | - |
| 1788459116 | 21.11° C | 87% | 1014.1 hPa | 0 mm | - | 181 W/m² | - |
| 1788458812 | 21.11° C | 85% | 1014.1 hPa | 0 mm | - | 164 W/m² | - |
| 1788458506 | 21.11° C | 86% | 1014.2 hPa | 0 mm | - | 170 W/m² | - |
| 1788458205 | 21.67° C | 88% | 1014.3 hPa | 0 mm | - | 154 W/m² | - |
| 1788457904 | 21.67° C | 86% | 1014.2 hPa | 0 mm | - | 173 W/m² | - |
| 1788457599 | 21.67° C | 87% | 1014.2 hPa | 0 mm | - | 232 W/m² | - |
| 1788457294 | 21.67° C | 85% | 1014.2 hPa | 0 mm | - | 228 W/m² | - |
| 1788456989 | 21.67° C | 83% | 1014.1 hPa | 0 mm | - | 305 W/m² | - |
| 1788456686 | 21.11° C | 88% | 1014 hPa | 0 mm | - | 450 W/m² | - |
| 1788456406 | 21.11° C | 89% | 1014.2 hPa | 0 mm | - | 326 W/m² | - |
| 1788456081 | 21.11° C | 88% | 1013.9 hPa | 0 mm | - | 266 W/m² | - |
| 1788455780 | 21.11° C | 87% | 1014.1 hPa | 0 mm | - | 190 W/m² | - |
| 1788455477 | 21.67° C | 85% | 1013.9 hPa | 0 mm | - | 233 W/m² | - |
| 1788455175 | 21.11° C | 89% | 1014.1 hPa | 0 mm | - | 552 W/m² | - |
| 1788454871 | 20.56° C | 90% | 1013.9 hPa | 0 mm | - | 493 W/m² | - |
| 1788454568 | 20.56° C | 90% | 1014.1 hPa | 0 mm | - | 278 W/m² | - |
| 1788454264 | 20.56° C | 90% | 1014.1 hPa | 0 mm | - | 354 W/m² | - |
| 1788453958 | 20.56° C | 90% | 1014.1 hPa | 0 mm | - | 211 W/m² | - |
| 1788453655 | 20° C | 92% | 1014.1 hPa | 0 mm | - | 229 W/m² | - |
| 1788453354 | 20° C | 92% | 1014.3 hPa | 0 mm | - | 401 W/m² | - |
| 1788453051 | 20° C | 91% | 1014.2 hPa | 0 mm | - | 106 W/m² | - |
| 1788452747 | 20° C | 91% | 1014.2 hPa | 0 mm | - | 163 W/m² | - |
| 1788452442 | 20° C | 91% | 1014.2 hPa | 0 mm | - | 228 W/m² | - |
* Rain latest hour (hover to see other rain measurements)
** Current wind speed in m/s (hover to see current wind gust speed)